RYR3780 EIDW-LEMH

Flight info

Callsign RYR3780
Flight time 2h 27m
Altitude 37000
Route PESIT2J PESIT DCT BAKUR DCT GUBJE DCT GISOK DCT TACQI DCT MANIG DCT KORER UM616 TUPAR DCT CNA DCT SECHE DCT AGN DCT TOU DCT LOMRA DCT ROCAN DCT GEANT DCT GIR DCT SALON DCT SULID DCT DIPES N727 SARGO
Aircraft B738/M-SDE3FGILRWY/SB1

Departure

Time 2026-05-05 16:15
Airport Dublin Airport (EIDW)

Arrival

Time 2026-05-05 18:43
Airport Menorca Airport (LEMH)
Time Latitude Longitude Altitude Speed Heading
2026-05-05 15:32 53.43001 -6.24813 210 ft 0 kts
2026-05-05 16:00 53.42995 -6.24814 210 ft 4 kts
2026-05-05 16:00 53.42979 -6.24814 210 ft 4 kts 351°
2026-05-05 16:00 53.42951 -6.24795 210 ft 4 kts 312°
2026-05-05 16:01 53.42940 -6.24762 210 ft 4 kts 281°
2026-05-05 16:01 53.42938 -6.24751 210 ft 0 kts 277°
2026-05-05 16:05 53.42939 -6.24756 210 ft 2 kts 276°
2026-05-05 16:06 53.42943 -6.24825 213 ft 8 kts 275°
2026-05-05 16:06 53.42948 -6.24918 210 ft 8 kts 275°
2026-05-05 16:06 53.42953 -6.25009 219 ft 8 kts 275°
2026-05-05 16:06 53.42958 -6.25097 210 ft 7 kts 275°
2026-05-05 16:07 53.42962 -6.25182 210 ft 7 kts 273°
2026-05-05 16:07 53.42954 -6.25261 219 ft 7 kts 248°
2026-05-05 16:07 53.42950 -6.25338 210 ft 7 kts 300°
2026-05-05 16:07 53.43000 -6.25393 210 ft 11 kts 336°
2026-05-05 16:08 53.43084 -6.25453 210 ft 15 kts 336°
2026-05-05 16:08 53.43185 -6.25525 212 ft 16 kts 336°
2026-05-05 16:08 53.43284 -6.25598 210 ft 15 kts 337°
2026-05-05 16:08 53.43381 -6.25649 217 ft 15 kts 15°
2026-05-05 16:09 53.43403 -6.25499 210 ft 14 kts 93°
2026-05-05 16:09 53.43395 -6.25340 210 ft 13 kts 94°
2026-05-05 16:09 53.43386 -6.25190 212 ft 13 kts 97°
2026-05-05 16:09 53.43378 -6.25043 210 ft 13 kts 94°
2026-05-05 16:10 53.43371 -6.24899 210 ft 12 kts 96°
2026-05-05 16:10 53.43362 -6.24759 210 ft 12 kts 96°
2026-05-05 16:10 53.43358 -6.24623 210 ft 11 kts 82°
2026-05-05 16:10 53.43398 -6.24561 210 ft 7 kts
2026-05-05 16:11 53.43406 -6.24560 210 ft 0 kts
2026-05-05 16:12 53.43427 -6.24557 211 ft 5 kts
2026-05-05 16:13 53.43526 -6.24616 213 ft 0 kts 275°
2026-05-05 16:14 53.43529 -6.24681 220 ft 13 kts 275°
2026-05-05 16:15 53.43636 -6.26603 210 ft 150 kts 275°
2026-05-05 16:15 53.43996 -6.30576 1366 ft 179 kts 289°
2026-05-05 16:16 53.45549 -6.34098 2517 ft 205 kts 312°
2026-05-05 16:16 53.47431 -6.37823 3670 ft 212 kts 310°
2026-05-05 16:17 53.49246 -6.41736 4864 ft 214 kts 307°
2026-05-05 16:17 53.50131 -6.43760 5445 ft 215 kts 307°
2026-05-05 16:18 53.50788 -6.48547 6258 ft 240 kts 249°
2026-05-05 16:18 53.49781 -6.50798 6665 ft 253 kts 218°
2026-05-05 16:18 53.46198 -6.51755 7516 ft 284 kts 166°
2026-05-05 16:19 53.44293 -6.50912 8382 ft 284 kts 165°
2026-05-05 16:19 53.42371 -6.50036 8856 ft 287 kts 165°
2026-05-05 16:19 53.38455 -6.48361 9069 ft 292 kts 166°
2026-05-05 16:20 53.34567 -6.46800 9064 ft 288 kts 167°
2026-05-05 16:20 53.30697 -6.45195 9395 ft 289 kts 161°
2026-05-05 16:21 53.26916 -6.42383 8956 ft 294 kts 154°
2026-05-05 16:22 53.21541 -6.38032 9632 ft 294 kts 154°
2026-05-05 16:22 53.17787 -6.35077 10747 ft 319 kts 155°
2026-05-05 16:23 53.13545 -6.31784 11693 ft 346 kts 155°
2026-05-05 16:23 53.11353 -6.30092 12450 ft 349 kts 155°
2026-05-05 16:23 53.06917 -6.26679 13959 ft 355 kts 156°
2026-05-05 16:24 53.04666 -6.24953 14670 ft 358 kts 156°
2026-05-05 16:24 53.02418 -6.23228 15340 ft 362 kts 156°
2026-05-05 16:24 52.97804 -6.19697 16661 ft 369 kts 156°
2026-05-05 16:25 52.95462 -6.17910 17304 ft 372 kts 156°
2026-05-05 16:25 52.90720 -6.14273 18547 ft 379 kts 156°
2026-05-05 16:25 52.88320 -6.12427 19144 ft 382 kts 156°
2026-05-05 16:26 52.83488 -6.08717 20256 ft 389 kts 156°
2026-05-05 16:26 52.78539 -6.04927 21348 ft 395 kts 156°
2026-05-05 16:27 52.76038 -6.03015 21853 ft 398 kts 156°
2026-05-05 16:27 52.73510 -6.01088 22362 ft 402 kts 156°
2026-05-05 16:27 52.70968 -5.99150 22861 ft 404 kts 156°
2026-05-05 16:27 52.68415 -5.97204 23049 ft 402 kts 156°
2026-05-05 16:28 52.65874 -5.95269 23058 ft 402 kts 156°
2026-05-05 16:28 52.63324 -5.93332 23072 ft 406 kts 156°
2026-05-05 16:28 52.60757 -5.91389 23071 ft 407 kts 156°
2026-05-05 16:28 52.58221 -5.89469 23062 ft 405 kts 156°
2026-05-05 16:29 52.55666 -5.87535 23057 ft 404 kts 156°
2026-05-05 16:29 52.53110 -5.85604 23053 ft 403 kts 156°
2026-05-05 16:29 52.50561 -5.83681 23057 ft 403 kts 156°
2026-05-05 16:29 52.48014 -5.81763 23056 ft 403 kts 156°
2026-05-05 16:30 52.45468 -5.79846 23056 ft 403 kts 156°
2026-05-05 16:30 52.42915 -5.77927 23059 ft 403 kts 156°
2026-05-05 16:30 52.40395 -5.76036 23059 ft 404 kts 156°
2026-05-05 16:30 52.37769 -5.74356 23116 ft 409 kts 163°
2026-05-05 16:31 52.35022 -5.73056 23552 ft 411 kts 166°
2026-05-05 16:31 52.32264 -5.71842 24145 ft 410 kts 165°
2026-05-05 16:31 52.29508 -5.70580 24623 ft 412 kts 165°
2026-05-05 16:31 52.26744 -5.69255 25007 ft 416 kts 164°
2026-05-05 16:32 52.23965 -5.67879 25409 ft 419 kts 162°
2026-05-05 16:32 52.21228 -5.66191 25819 ft 422 kts 158°
2026-05-05 16:32 52.18550 -5.64351 26220 ft 424 kts 157°
2026-05-05 16:32 52.15832 -5.62447 26606 ft 427 kts 158°
2026-05-05 16:33 52.13087 -5.60548 26970 ft 430 kts 158°
2026-05-05 16:33 52.10325 -5.58668 27336 ft 432 kts 158°
2026-05-05 16:33 52.07541 -5.56796 27690 ft 434 kts 158°
2026-05-05 16:33 52.04741 -5.54924 28030 ft 436 kts 158°
2026-05-05 16:34 52.01954 -5.52941 28355 ft 439 kts 155°
2026-05-05 16:34 51.99189 -5.50795 28685 ft 441 kts 154°
2026-05-05 16:34 51.96437 -5.48587 29033 ft 442 kts 154°
2026-05-05 16:34 51.93680 -5.46361 29376 ft 443 kts 154°
2026-05-05 16:35 51.90947 -5.44169 29657 ft 445 kts 154°
2026-05-05 16:35 51.88162 -5.41954 29921 ft 447 kts 154°
2026-05-05 16:35 51.85357 -5.39741 30185 ft 449 kts 154°
2026-05-05 16:35 51.82540 -5.37528 30459 ft 451 kts 154°
2026-05-05 16:36 51.79712 -5.35314 30728 ft 452 kts 154°
2026-05-05 16:36 51.76877 -5.33101 31047 ft 453 kts 154°
2026-05-05 16:36 51.74047 -5.30894 31428 ft 451 kts 154°
2026-05-05 16:36 51.71229 -5.28699 31802 ft 449 kts 154°
2026-05-05 16:37 51.68415 -5.26508 32100 ft 449 kts 154°
2026-05-05 16:37 51.65634 -5.24346 32370 ft 450 kts 154°
2026-05-05 16:37 51.62820 -5.22163 32670 ft 449 kts 154°
2026-05-05 16:37 51.60006 -5.19982 32975 ft 449 kts 154°
2026-05-05 16:38 51.57193 -5.17802 33306 ft 448 kts 154°
2026-05-05 16:38 51.54390 -5.15636 33589 ft 447 kts 154°
2026-05-05 16:38 51.51594 -5.13447 33849 ft 448 kts 152°
2026-05-05 16:38 51.48958 -5.10799 34089 ft 448 kts 142°
2026-05-05 16:39 51.46590 -5.07562 34369 ft 447 kts 138°
2026-05-05 16:39 51.44281 -5.04232 34622 ft 447 kts 137°
2026-05-05 16:39 51.42008 -5.00938 34808 ft 447 kts 137°
2026-05-05 16:39 51.39692 -4.97604 35033 ft 448 kts 138°
2026-05-05 16:40 51.37366 -4.94283 35274 ft 447 kts 138°
2026-05-05 16:40 51.35037 -4.90985 35503 ft 447 kts 138°
2026-05-05 16:40 51.32707 -4.87704 35734 ft 447 kts 138°
2026-05-05 16:40 51.30367 -4.84416 35919 ft 448 kts 139°
2026-05-05 16:41 51.28024 -4.81133 36114 ft 448 kts 139°
2026-05-05 16:41 51.25678 -4.77857 36338 ft 448 kts 139°
2026-05-05 16:41 51.23367 -4.74629 36503 ft 448 kts 139°
2026-05-05 16:41 51.21019 -4.71353 36701 ft 448 kts 139°
2026-05-05 16:42 51.18676 -4.68089 37000 ft 445 kts 139°
2026-05-05 16:42 51.16336 -4.64830 36980 ft 448 kts 139°
2026-05-05 16:42 51.11677 -4.58355 36988 ft 440 kts 139°
2026-05-05 16:43 51.07088 -4.51995 37006 ft 436 kts 139°
2026-05-05 16:43 51.02409 -4.45972 36997 ft 436 kts 147°
2026-05-05 16:44 50.97275 -4.40852 36998 ft 436 kts 148°
2026-05-05 16:44 50.92093 -4.35839 37000 ft 437 kts 148°
2026-05-05 16:45 50.86925 -4.30757 36994 ft 438 kts 148°
2026-05-05 16:45 50.81792 -4.25678 36991 ft 438 kts 148°
2026-05-05 16:46 50.76614 -4.20550 36993 ft 440 kts 148°
2026-05-05 16:46 50.71422 -4.15423 36991 ft 441 kts 148°
2026-05-05 16:47 50.66219 -4.10302 36990 ft 441 kts 148°
2026-05-05 16:47 50.61043 -4.05219 36984 ft 442 kts 148°
2026-05-05 16:48 50.55827 -4.00107 36980 ft 442 kts 148°
2026-05-05 16:48 50.50608 -3.95006 36982 ft 441 kts 148°
2026-05-05 16:49 50.45395 -3.89928 36978 ft 441 kts 148°
2026-05-05 16:49 50.40227 -3.84901 36982 ft 440 kts 148°
2026-05-05 16:50 50.35026 -3.79866 36982 ft 439 kts 148°
2026-05-05 16:50 50.29834 -3.74846 36982 ft 438 kts 148°
2026-05-05 16:51 50.24649 -3.69847 36980 ft 438 kts 148°
2026-05-05 16:51 50.19496 -3.64867 36984 ft 438 kts 148°
2026-05-05 16:52 50.14310 -3.59891 36980 ft 438 kts 148°
2026-05-05 16:52 50.09116 -3.54927 36983 ft 438 kts 148°
2026-05-05 16:53 50.03953 -3.50000 36982 ft 438 kts 148°
2026-05-05 16:53 49.98759 -3.45055 36981 ft 438 kts 148°
2026-05-05 16:54 49.93563 -3.40123 36974 ft 438 kts 148°
2026-05-05 16:54 49.88360 -3.35196 36969 ft 438 kts 148°
2026-05-05 16:55 49.83182 -3.30306 36962 ft 439 kts 148°
2026-05-05 16:55 49.77846 -3.25750 36956 ft 438 kts 159°
2026-05-05 16:56 49.71980 -3.23254 36968 ft 438 kts 167°
2026-05-05 16:56 49.66034 -3.21119 36963 ft 438 kts 167°
2026-05-05 16:57 49.60102 -3.18960 36961 ft 439 kts 166°
2026-05-05 16:57 49.54206 -3.16777 36963 ft 439 kts 166°
2026-05-05 16:58 49.48274 -3.14568 36962 ft 439 kts 166°
2026-05-05 16:58 49.42346 -3.12367 36961 ft 438 kts 166°
2026-05-05 16:59 49.36464 -3.10185 36962 ft 438 kts 166°
2026-05-05 16:59 49.30550 -3.07998 36961 ft 437 kts 166°
2026-05-05 17:00 49.24643 -3.05818 36963 ft 437 kts 166°
2026-05-05 17:00 49.18741 -3.03645 36963 ft 436 kts 166°
2026-05-05 17:01 49.12837 -3.01479 36964 ft 436 kts 166°
2026-05-05 17:01 49.06980 -2.99333 36961 ft 436 kts 166°
2026-05-05 17:02 49.01080 -2.97175 36964 ft 436 kts 166°
2026-05-05 17:02 48.95181 -2.95026 36964 ft 436 kts 166°
2026-05-05 17:03 48.89280 -2.92883 36963 ft 436 kts 166°
2026-05-05 17:03 48.83377 -2.90744 36964 ft 436 kts 166°
2026-05-05 17:04 48.77513 -2.88623 36963 ft 436 kts 166°
2026-05-05 17:04 48.71612 -2.86493 36967 ft 436 kts 166°
2026-05-05 17:05 48.65710 -2.84372 36963 ft 436 kts 166°
2026-05-05 17:05 48.59809 -2.82246 36961 ft 436 kts 166°
2026-05-05 17:06 48.53934 -2.80139 36964 ft 436 kts 166°
2026-05-05 17:06 48.48022 -2.78028 36963 ft 437 kts 166°
2026-05-05 17:07 48.42100 -2.75918 36962 ft 437 kts 166°
2026-05-05 17:07 48.36185 -2.73814 36964 ft 437 kts 166°
2026-05-05 17:08 48.30302 -2.71726 36962 ft 437 kts 166°
2026-05-05 17:08 48.24386 -2.69630 36956 ft 437 kts 166°
2026-05-05 17:09 48.18468 -2.67540 36942 ft 437 kts 166°
2026-05-05 17:09 48.12555 -2.65454 36929 ft 437 kts 166°
2026-05-05 17:10 48.06680 -2.63391 36929 ft 436 kts 166°
2026-05-05 17:10 48.00778 -2.61323 36920 ft 436 kts 166°
2026-05-05 17:11 47.94877 -2.59261 36921 ft 435 kts 166°
2026-05-05 17:11 47.88990 -2.57207 36915 ft 435 kts 166°
2026-05-05 17:12 47.83143 -2.55172 36919 ft 434 kts 166°
2026-05-05 17:12 47.77269 -2.53133 36913 ft 433 kts 166°
2026-05-05 17:13 47.71426 -2.50988 36905 ft 433 kts 159°
2026-05-05 17:13 47.68723 -2.49061 36915 ft 431 kts 147°
2026-05-05 17:13 47.66319 -2.46404 36908 ft 431 kts 136°
2026-05-05 17:14 47.62374 -2.39801 36921 ft 431 kts 130°
2026-05-05 17:14 47.58503 -2.33009 36916 ft 432 kts 130°
2026-05-05 17:15 47.54584 -2.26253 36916 ft 433 kts 130°
2026-05-05 17:15 47.50629 -2.19511 36921 ft 434 kts 131°
2026-05-05 17:16 47.46686 -2.12816 36923 ft 436 kts 131°
2026-05-05 17:16 47.42696 -2.06059 36903 ft 436 kts 131°
2026-05-05 17:17 47.38708 -1.99319 36916 ft 436 kts 131°
2026-05-05 17:17 47.34714 -1.92581 36912 ft 436 kts 131°
2026-05-05 17:18 47.30718 -1.85833 36901 ft 437 kts 131°
2026-05-05 17:18 47.26751 -1.79150 36898 ft 436 kts 131°
2026-05-05 17:19 47.22754 -1.72436 36888 ft 436 kts 131°
2026-05-05 17:19 47.18754 -1.65732 36885 ft 435 kts 131°
2026-05-05 17:20 47.14662 -1.59176 36883 ft 435 kts 136°
2026-05-05 17:20 47.10172 -1.53309 36890 ft 435 kts 139°
2026-05-05 17:21 47.05612 -1.47482 36891 ft 435 kts 138°
2026-05-05 17:22 46.98831 -1.38632 36889 ft 435 kts 138°
2026-05-05 17:22 46.94318 -1.32726 36889 ft 435 kts 138°
2026-05-05 17:23 46.89831 -1.26862 36883 ft 435 kts 138°
2026-05-05 17:23 46.85308 -1.20969 36888 ft 436 kts 138°
2026-05-05 17:24 46.80773 -1.15092 36890 ft 436 kts 138°
2026-05-05 17:24 46.76233 -1.09205 36889 ft 437 kts 138°
2026-05-05 17:25 46.71717 -1.03363 36888 ft 437 kts 138°
2026-05-05 17:25 46.67159 -0.97488 36891 ft 438 kts 138°
2026-05-05 17:26 46.62599 -0.91616 36883 ft 438 kts 138°
2026-05-05 17:26 46.58035 -0.85753 36887 ft 438 kts 139°
2026-05-05 17:27 46.53508 -0.79923 36892 ft 438 kts 138°
2026-05-05 17:27 46.48949 -0.74054 36893 ft 438 kts 138°
2026-05-05 17:28 46.44336 -0.68277 36890 ft 437 kts 144°
2026-05-05 17:28 46.38949 -0.64297 36890 ft 436 kts 162°
2026-05-05 17:29 46.33154 -0.61668 36895 ft 436 kts 162°
2026-05-05 17:29 46.27393 -0.59096 36896 ft 436 kts 162°
2026-05-05 17:30 46.21599 -0.56466 36894 ft 436 kts 162°
2026-05-05 17:30 46.15793 -0.53807 36904 ft 438 kts 162°
2026-05-05 17:31 46.09993 -0.51148 36896 ft 436 kts 162°
2026-05-05 17:31 46.04252 -0.48520 36902 ft 435 kts 162°
2026-05-05 17:32 45.98490 -0.45894 36905 ft 434 kts 162°
2026-05-05 17:32 45.92737 -0.43278 36899 ft 433 kts 162°
2026-05-05 17:33 45.86982 -0.40667 36904 ft 434 kts 163°
2026-05-05 17:33 45.81254 -0.38076 36908 ft 436 kts 163°
2026-05-05 17:34 45.75450 -0.35454 36917 ft 438 kts 163°
2026-05-05 17:34 45.69622 -0.32826 36917 ft 440 kts 163°
2026-05-05 17:35 45.63838 -0.29909 36917 ft 442 kts 156°
2026-05-05 17:35 45.58330 -0.26088 36920 ft 444 kts 154°
2026-05-05 17:36 45.52804 -0.22133 36916 ft 445 kts 154°
2026-05-05 17:36 45.47253 -0.18244 36919 ft 445 kts 154°
2026-05-05 17:37 45.41692 -0.14403 36928 ft 444 kts 155°
2026-05-05 17:37 45.36169 -0.10615 36918 ft 443 kts 155°
2026-05-05 17:38 45.30623 -0.06819 36920 ft 442 kts 155°
2026-05-05 17:38 45.25082 -0.03034 36920 ft 441 kts 155°
2026-05-05 17:39 45.19592 0.00709 36935 ft 440 kts 155°
2026-05-05 17:39 45.14084 0.04456 36936 ft 439 kts 155°
2026-05-05 17:40 45.08582 0.08193 36911 ft 438 kts 155°
2026-05-05 17:40 45.03097 0.11908 36930 ft 436 kts 156°
2026-05-05 17:41 44.97634 0.15598 36935 ft 435 kts 156°
2026-05-05 17:41 44.92215 0.19253 36931 ft 434 kts 156°
2026-05-05 17:42 44.86775 0.22915 36936 ft 433 kts 156°
2026-05-05 17:42 44.81333 0.26568 36930 ft 433 kts 156°
2026-05-05 17:43 44.75900 0.30212 36939 ft 433 kts 156°
2026-05-05 17:43 44.70489 0.33834 36937 ft 434 kts 156°
2026-05-05 17:44 44.65028 0.37481 36934 ft 435 kts 156°
2026-05-05 17:44 44.59552 0.41125 36946 ft 436 kts 156°
2026-05-05 17:45 44.54068 0.44765 36944 ft 437 kts 156°
2026-05-05 17:45 44.48612 0.48384 36947 ft 437 kts 156°
2026-05-05 17:46 44.43116 0.52024 36944 ft 437 kts 156°
2026-05-05 17:46 44.37607 0.55641 36941 ft 438 kts 156°
2026-05-05 17:47 44.32085 0.59250 36936 ft 438 kts 156°
2026-05-05 17:47 44.26558 0.62858 36932 ft 438 kts 156°
2026-05-05 17:48 44.21072 0.66432 36937 ft 438 kts 157°
2026-05-05 17:48 44.15550 0.70018 36932 ft 438 kts 157°
2026-05-05 17:49 44.10029 0.73603 36942 ft 437 kts 157°
2026-05-05 17:49 44.04520 0.77169 36944 ft 437 kts 157°
2026-05-05 17:50 43.99011 0.80727 36945 ft 436 kts 157°
2026-05-05 17:50 43.93548 0.84249 36949 ft 436 kts 158°
2026-05-05 17:51 43.88484 0.88901 36959 ft 442 kts 138°
2026-05-05 17:51 43.86430 0.92083 36947 ft 446 kts 127°
2026-05-05 17:51 43.84714 0.95659 36967 ft 446 kts 125°
2026-05-05 17:52 43.81406 1.02868 36953 ft 446 kts 125°
2026-05-05 17:52 43.78047 1.10086 36961 ft 446 kts 126°
2026-05-05 17:53 43.74649 1.17263 36962 ft 446 kts 126°
2026-05-05 17:53 43.71236 1.24427 36962 ft 446 kts 126°
2026-05-05 17:54 43.67801 1.31576 36957 ft 446 kts 129°
2026-05-05 17:54 43.63997 1.38228 36966 ft 444 kts 132°
2026-05-05 17:55 43.60071 1.44823 36964 ft 445 kts 132°
2026-05-05 17:55 43.56160 1.51440 36961 ft 445 kts 131°
2026-05-05 17:56 43.52263 1.58066 36974 ft 445 kts 131°
2026-05-05 17:56 43.48366 1.64694 36972 ft 445 kts 131°
2026-05-05 17:57 43.44494 1.71261 36971 ft 445 kts 132°
2026-05-05 17:57 43.40591 1.77862 36975 ft 444 kts 132°
2026-05-05 17:58 43.36662 1.84410 36961 ft 442 kts 137°
2026-05-05 17:58 43.34259 1.86960 36980 ft 433 kts 155°
2026-05-05 17:58 43.31491 1.88499 36967 ft 427 kts 169°
2026-05-05 17:59 43.25687 1.89311 36974 ft 422 kts 179°
2026-05-05 17:59 43.19805 1.89773 36973 ft 424 kts 179°
2026-05-05 18:00 43.13911 1.90286 36960 ft 425 kts 179°
2026-05-05 18:00 43.08000 1.90839 36966 ft 426 kts 179°
2026-05-05 18:01 43.02123 1.91402 36962 ft 426 kts 179°
2026-05-05 18:01 42.96205 1.91969 36961 ft 426 kts 179°
2026-05-05 18:02 42.90288 1.92532 36969 ft 426 kts 179°
2026-05-05 18:02 42.84389 1.93092 36965 ft 425 kts 179°
2026-05-05 18:03 42.78541 1.93645 36965 ft 423 kts 179°
2026-05-05 18:03 42.72676 1.94199 36962 ft 422 kts 179°
2026-05-05 18:04 42.66941 1.95997 36987 ft 430 kts 159°
2026-05-05 18:04 42.64302 1.97964 36961 ft 436 kts 148°
2026-05-05 18:04 42.61920 2.00532 36971 ft 438 kts 144°
2026-05-05 18:05 42.57314 2.05849 36957 ft 438 kts 144°
2026-05-05 18:05 42.52655 2.11152 36950 ft 436 kts 144°
2026-05-05 18:06 42.47979 2.16387 36955 ft 436 kts 145°
2026-05-05 18:06 42.43299 2.21604 36952 ft 436 kts 145°
2026-05-05 18:07 42.38642 2.26810 36938 ft 437 kts 145°
2026-05-05 18:07 42.33958 2.32041 36945 ft 437 kts 144°
2026-05-05 18:08 42.29268 2.37270 36940 ft 437 kts 145°
2026-05-05 18:08 42.24568 2.42494 36929 ft 438 kts 145°
2026-05-05 18:09 42.19896 2.47678 36924 ft 438 kts 145°
2026-05-05 18:09 42.15193 2.52885 36935 ft 437 kts 145°
2026-05-05 18:10 42.10486 2.58086 36932 ft 437 kts 144°
2026-05-05 18:10 42.05773 2.63278 36912 ft 437 kts 145°
2026-05-05 18:11 42.01078 2.68445 36550 ft 440 kts 145°
2026-05-05 18:11 41.98729 2.71029 36251 ft 433 kts 145°
2026-05-05 18:11 41.96410 2.73579 35846 ft 429 kts 146°
2026-05-05 18:11 41.94105 2.76105 35459 ft 425 kts 146°
2026-05-05 18:12 41.91797 2.78553 35109 ft 419 kts 148°
2026-05-05 18:12 41.89464 2.80844 34770 ft 414 kts 150°
2026-05-05 18:12 41.87121 2.83066 34382 ft 410 kts 150°
2026-05-05 18:12 41.84790 2.85257 34005 ft 407 kts 150°
2026-05-05 18:13 41.82512 2.87402 33629 ft 404 kts 150°
2026-05-05 18:13 41.80225 2.89564 33246 ft 401 kts 150°
2026-05-05 18:13 41.77952 2.91721 32861 ft 399 kts 150°
2026-05-05 18:13 41.75697 2.93867 32444 ft 397 kts 150°
2026-05-05 18:14 41.73451 2.96004 32027 ft 395 kts 150°
2026-05-05 18:14 41.71219 2.98129 31624 ft 393 kts 150°
2026-05-05 18:14 41.68993 3.00245 31220 ft 391 kts 150°
2026-05-05 18:14 41.66783 3.02345 30842 ft 389 kts 150°
2026-05-05 18:15 41.64613 3.04408 30458 ft 386 kts 150°
2026-05-05 18:15 41.62424 3.06483 29994 ft 386 kts 151°
2026-05-05 18:15 41.60237 3.08555 29609 ft 384 kts 151°
2026-05-05 18:15 41.58064 3.10612 29227 ft 381 kts 150°
2026-05-05 18:16 41.55914 3.12646 28847 ft 378 kts 150°
2026-05-05 18:16 41.53771 3.14671 28471 ft 376 kts 150°
2026-05-05 18:16 41.51648 3.16678 28109 ft 373 kts 150°
2026-05-05 18:16 41.49538 3.18668 27732 ft 369 kts 151°
2026-05-05 18:17 41.47405 3.20533 27386 ft 365 kts 154°
2026-05-05 18:17 41.45269 3.22278 27023 ft 365 kts 154°
2026-05-05 18:17 41.43099 3.24019 26661 ft 363 kts 154°
2026-05-05 18:17 41.40935 3.25769 26291 ft 363 kts 154°
2026-05-05 18:18 41.38787 3.27506 25934 ft 360 kts 154°
2026-05-05 18:18 41.36654 3.29242 25576 ft 358 kts 154°
2026-05-05 18:18 41.34540 3.30966 25221 ft 355 kts 154°
2026-05-05 18:18 41.32439 3.32679 24868 ft 353 kts 153°
2026-05-05 18:19 41.30356 3.34378 24521 ft 350 kts 153°
2026-05-05 18:19 41.28316 3.36040 24180 ft 348 kts 153°
2026-05-05 18:19 41.26259 3.37715 23834 ft 345 kts 153°
2026-05-05 18:19 41.24221 3.39372 23491 ft 342 kts 153°
2026-05-05 18:20 41.22195 3.41020 23148 ft 340 kts 153°
2026-05-05 18:20 41.20187 3.42654 22809 ft 338 kts 153°
2026-05-05 18:20 41.18191 3.44277 22468 ft 335 kts 153°
2026-05-05 18:20 41.16217 3.45891 22170 ft 332 kts 153°
2026-05-05 18:21 41.14256 3.47500 21829 ft 330 kts 152°
2026-05-05 18:21 41.12339 3.49070 21511 ft 328 kts 153°
2026-05-05 18:21 41.10404 3.50652 21168 ft 326 kts 152°
2026-05-05 18:21 41.08481 3.52224 20850 ft 324 kts 152°
2026-05-05 18:22 41.06567 3.53785 20523 ft 322 kts 152°
2026-05-05 18:22 41.04664 3.55336 20194 ft 320 kts 152°
2026-05-05 18:22 41.02767 3.56876 19867 ft 319 kts 153°
2026-05-05 18:22 41.00876 3.58408 19540 ft 317 kts 153°
2026-05-05 18:23 40.98996 3.59930 19214 ft 316 kts 152°
2026-05-05 18:23 40.97128 3.61440 18892 ft 314 kts 153°
2026-05-05 18:23 40.95266 3.62944 18572 ft 313 kts 152°
2026-05-05 18:23 40.93439 3.64418 18253 ft 311 kts 152°
2026-05-05 18:24 40.91594 3.65906 17938 ft 310 kts 152°
2026-05-05 18:24 40.89762 3.67383 17612 ft 308 kts 152°
2026-05-05 18:24 40.87934 3.68857 17298 ft 307 kts 152°
2026-05-05 18:24 40.86114 3.70324 16984 ft 306 kts 152°
2026-05-05 18:25 40.84295 3.71784 16674 ft 305 kts 152°
2026-05-05 18:25 40.83707 3.72257 16567 ft 305 kts 152°
2026-05-05 18:25 40.80675 3.74685 16041 ft 303 kts 152°
2026-05-05 18:25 40.78901 3.76107 15728 ft 302 kts 152°
2026-05-05 18:26 40.77123 3.77540 15423 ft 298 kts 152°
2026-05-05 18:26 40.75357 3.78962 15108 ft 296 kts 152°
2026-05-05 18:26 40.73602 3.80376 14802 ft 295 kts 152°
2026-05-05 18:26 40.71850 3.81780 14495 ft 294 kts 152°
2026-05-05 18:27 40.70104 3.83170 14201 ft 294 kts 152°
2026-05-05 18:27 40.68360 3.84565 13894 ft 292 kts 152°
2026-05-05 18:27 40.66636 3.85951 13590 ft 289 kts 152°
2026-05-05 18:27 40.64915 3.87322 13277 ft 288 kts 152°
2026-05-05 18:28 40.61527 3.90025 12691 ft 285 kts 152°
2026-05-05 18:28 40.59835 3.91377 12385 ft 284 kts 152°
2026-05-05 18:28 40.58147 3.92723 12101 ft 283 kts 152°
2026-05-05 18:29 40.56467 3.94060 11796 ft 282 kts 152°
2026-05-05 18:29 40.54794 3.95392 11497 ft 281 kts 152°
2026-05-05 18:29 40.53124 3.96722 11194 ft 280 kts 151°
2026-05-05 18:29 40.51481 3.98028 10902 ft 279 kts 151°
2026-05-05 18:30 40.49806 3.99302 10591 ft 277 kts 158°
2026-05-05 18:30 40.47986 4.00096 10252 ft 275 kts 167°
2026-05-05 18:30 40.46147 4.00723 10037 ft 270 kts 168°
2026-05-05 18:30 40.44348 4.01324 9847 ft 265 kts 167°
2026-05-05 18:31 40.42560 4.01927 9562 ft 265 kts 167°
2026-05-05 18:31 40.40785 4.02534 9288 ft 263 kts 167°
2026-05-05 18:31 40.39020 4.03144 9019 ft 262 kts 167°
2026-05-05 18:31 40.37267 4.03755 8754 ft 261 kts 167°
2026-05-05 18:32 40.35540 4.04358 8486 ft 259 kts 166°
2026-05-05 18:32 40.33799 4.04969 8201 ft 258 kts 166°
2026-05-05 18:32 40.32069 4.05577 7946 ft 257 kts 166°
2026-05-05 18:32 40.30348 4.06181 7685 ft 254 kts 166°
2026-05-05 18:33 40.28646 4.06782 7410 ft 252 kts 166°
2026-05-05 18:33 40.26957 4.07378 7126 ft 252 kts 166°
2026-05-05 18:33 40.25229 4.07987 6598 ft 261 kts 166°
2026-05-05 18:33 40.23474 4.08603 6271 ft 262 kts 166°
2026-05-05 18:34 40.21745 4.09213 6018 ft 260 kts 166°
2026-05-05 18:34 40.20006 4.09827 5756 ft 258 kts 166°
2026-05-05 18:34 40.18280 4.10439 5492 ft 256 kts 166°
2026-05-05 18:34 40.16563 4.11043 5225 ft 254 kts 166°
2026-05-05 18:35 40.14861 4.11639 4964 ft 253 kts 166°
2026-05-05 18:35 40.13170 4.12233 4759 ft 249 kts 166°
2026-05-05 18:35 40.11524 4.12814 4465 ft 241 kts 166°
2026-05-05 18:35 40.09957 4.13417 4189 ft 230 kts 158°
2026-05-05 18:36 40.08732 4.14630 3948 ft 223 kts 129°
2026-05-05 18:36 40.08038 4.16393 3723 ft 215 kts 109°
2026-05-05 18:36 40.07849 4.18286 3494 ft 208 kts 88°
2026-05-05 18:36 40.07984 4.20112 3396 ft 195 kts 88°
2026-05-05 18:37 40.08043 4.21829 3295 ft 183 kts 92°
2026-05-05 18:37 40.07868 4.23385 3179 ft 164 kts 118°
2026-05-05 18:37 40.07223 4.24572 3170 ft 164 kts 140°
2026-05-05 18:37 40.06264 4.25380 3098 ft 166 kts 160°
2026-05-05 18:38 40.05141 4.25691 2895 ft 165 kts 181°
2026-05-05 18:38 40.04000 4.25532 2747 ft 165 kts 189°
2026-05-05 18:38 40.02842 4.25292 2517 ft 163 kts 189°
2026-05-05 18:38 40.01766 4.25069 2359 ft 150 kts 189°
2026-05-05 18:39 40.00749 4.24862 2339 ft 146 kts 189°
2026-05-05 18:39 39.99735 4.24651 2228 ft 148 kts 189°
2026-05-05 18:39 39.98716 4.24439 2160 ft 148 kts 189°
2026-05-05 18:39 39.97697 4.24228 2076 ft 149 kts 189°
2026-05-05 18:40 39.96667 4.24015 1963 ft 150 kts 189°
2026-05-05 18:40 39.95643 4.23803 1918 ft 149 kts 189°
2026-05-05 18:40 39.94628 4.23595 1782 ft 149 kts 189°
2026-05-05 18:40 39.93610 4.23383 1592 ft 148 kts 188°
2026-05-05 18:41 39.92587 4.23173 1402 ft 149 kts 189°
2026-05-05 18:41 39.91567 4.22963 1205 ft 148 kts 189°
2026-05-05 18:41 39.90546 4.22763 1004 ft 148 kts 188°
2026-05-05 18:41 39.89529 4.22580 813 ft 148 kts 188°
2026-05-05 18:42 39.88518 4.22359 580 ft 146 kts 188°
2026-05-05 18:42 39.87562 4.22152 408 ft 138 kts 189°
2026-05-05 18:42 39.86650 4.21958 299 ft 123 kts 189°
2026-05-05 18:42 39.86013 4.21817 297 ft 63 kts 189°
2026-05-05 18:43 39.85700 4.21758 296 ft 38 kts 183°
2026-05-05 18:43 39.85481 4.21811 294 ft 15 kts 158°
2026-05-05 18:43 39.85465 4.21819 291 ft 1 kts 156°
2026-05-05 18:43 39.85438 4.21836 292 ft 8 kts 154°
2026-05-05 18:44 39.85400 4.21888 290 ft 8 kts 93°
2026-05-05 18:44 39.85434 4.21934 293 ft 8 kts 15°
2026-05-05 18:44 39.85486 4.21944 294 ft 7 kts
2026-05-05 18:44 39.85535 4.21954 291 ft 7 kts
2026-05-05 18:45 39.85583 4.21966 292 ft 7 kts 11°
2026-05-05 18:45 39.85631 4.21976 293 ft 7 kts
2026-05-05 18:45 39.85677 4.21983 298 ft 7 kts
2026-05-05 18:45 39.85723 4.21992 299 ft 7 kts
2026-05-05 18:46 39.85770 4.22003 298 ft 7 kts 10°
2026-05-05 18:46 39.85825 4.22016 296 ft 9 kts 12°
2026-05-05 18:46 39.85892 4.22029 298 ft 11 kts
2026-05-05 18:46 39.85971 4.22043 294 ft 12 kts
2026-05-05 18:47 39.86060 4.22064 298 ft 13 kts 10°
2026-05-05 18:47 39.86150 4.22082 298 ft 13 kts
2026-05-05 18:47 39.86187 4.22172 296 ft 13 kts 97°
2026-05-05 18:47 39.86216 4.22264 297 ft 13 kts 17°
2026-05-05 18:48 39.86301 4.22283 297 ft 12 kts
2026-05-05 18:48 39.86384 4.22300 294 ft 12 kts
2026-05-05 18:48 39.86464 4.22317 295 ft 12 kts
2026-05-05 18:48 39.86523 4.22329 294 ft 6 kts
2026-05-05 18:49 39.86535 4.22372 298 ft 6 kts 106°
2026-05-05 18:49 39.86528 4.22418 294 ft 0 kts 99°